Aduana, Mexico

8:54 PM on December 10, 2016 (GMT +0000)
Cancun International

Weather History for MMUN - May, 2013

Change the Weather History Date:

Saturday, May 25, 2013

  Actual Average Record
Temperature  
Mean Temperature 82 °F -  
Max Temperature 87 °F 88 °F 93 °F (1999)
Min Temperature 78 °F 74 °F 68 °F (1999)
Cooling Degree Days 18    
Growing Degree Days 32 (Base 50)    
Moisture  
Dew Point 74 °F    
Average Humidity 75    
Maximum Humidity 84    
Minimum Humidity 58    
Precipitation  
Precipitation 0.00 in - - ()
Sea Level Pressure  
Sea Level Pressure 30.04 in    
Wind  
Wind Speed 6 mph ()    
Max Wind Speed 14 mph    
Max Gust Speed -    
Visibility 7.0 miles    
Events      
Averages and records for this station are not official NWS values.
T = Trace of Precipitation, MM = Missing Value Source: Averaged Metar Reports

Daily Weather History Graph

Daily Weather History Graph

Search for Another Location

Airport or City:

Trip Planner

Search our weather history database for the weather conditions in past years. The results will help you decide how hot, cold, wet, or windy it might be!

Date:

Astronomy

May. 25, 2013 Rise Set
Actual Time 6:06 AM CDT 7:22 PM CDT
Civil Twilight 5:42 AM CDT 7:46 PM CDT
Nautical Twilight 5:13 AM CDT 8:15 PM CDT
Astronomical Twilight 4:43 AM CDT 8:45 PM CDT
Moon 8:11 PM CDT (5/25) 6:31 AM CDT (5/25)
Length of Visible Light 14h 04m
Length of Day
13h 15m
Full, 100% of the Moon is Illuminated
May 25
Full
May 31
Last Quarter
Jun 8
New
Jun 16
First Quarter
Jun 23
Full

Hourly Weather History & Observations

Time (CDT) Temp. Heat Index Dew Point Humidity Pressure Visibility Wind Dir Wind Speed Gust Speed Precip Events Conditions
12:40 AM 80.6 °F 86.2 °F 75.2 °F 84% 30.04 in 7.0 mi East 5.8 mph - N/A   Scattered Clouds
1:47 AM 80.6 °F 85.4 °F 73.4 °F 79% 30.02 in 7.0 mi ENE 5.8 mph - N/A   Scattered Clouds
2:47 AM 78.8 °F - 73.4 °F 83% 30.02 in 7.0 mi NE 3.5 mph - N/A   Scattered Clouds
3:40 AM 78.8 °F - 73.4 °F 83% 30.02 in 7.0 mi East 3.5 mph - N/A   Mostly Cloudy
4:40 AM 78.8 °F - 73.4 °F 83% 30.01 in 7.0 mi ENE 3.5 mph - N/A   Scattered Clouds
5:40 AM 78.8 °F - 73.4 °F 83% 30.02 in 7.0 mi ENE 3.5 mph - N/A   Mostly Cloudy
6:46 AM 78.8 °F - 73.4 °F 83% 30.01 in 7.0 mi NNE 3.5 mph - N/A   Mostly Cloudy
7:41 AM 82.4 °F 88.2 °F 73.4 °F 74% 30.05 in 7.0 mi ENE 8.1 mph - N/A   Mostly Cloudy
8:42 AM 84.2 °F 90.9 °F 73.4 °F 70% 30.06 in 7.0 mi East 9.2 mph - N/A   Mostly Cloudy
9:46 AM 86.0 °F 93.4 °F 73.4 °F 66% 30.07 in 7.0 mi ENE 11.5 mph - N/A   Mostly Cloudy
10:40 AM 86.0 °F 93.4 °F 73.4 °F 66% 30.08 in 7.0 mi East 10.4 mph - N/A   Mostly Cloudy
11:47 AM 87.8 °F 95.6 °F 73.4 °F 62% 30.08 in 7.0 mi ESE 13.8 mph - N/A   Mostly Cloudy
12:41 PM 87.8 °F 93.8 °F 71.6 °F 58% 30.06 in 7.0 mi East 11.5 mph - N/A   Scattered Clouds
1:40 PM 86.0 °F 93.4 °F 73.4 °F 66% 30.05 in 7.0 mi East 11.5 mph - N/A   Mostly Cloudy
2:41 PM 87.8 °F 95.6 °F 73.4 °F 62% 30.04 in 7.0 mi ENE 12.7 mph - N/A   Mostly Cloudy
3:50 PM 86.0 °F 93.4 °F 73.4 °F 66% 30.02 in 7.0 mi East 10.4 mph - N/A   Mostly Cloudy
4:44 PM 86.0 °F 95.1 °F 75.2 °F 70% 30.01 in 7.0 mi ENE 9.2 mph - N/A   Mostly Cloudy
5:40 PM 84.2 °F 92.3 °F 75.2 °F 74% 30.01 in 7.0 mi East 10.4 mph - N/A   Mostly Cloudy
6:45 PM 82.4 °F 89.5 °F 75.2 °F 79% 30.00 in 7.0 mi ENE 10.4 mph - N/A   Mostly Cloudy
7:42 PM 80.6 °F 86.2 °F 75.2 °F 84% 30.02 in 7.0 mi ENE 3.5 mph - N/A   Scattered Clouds
8:42 PM 80.6 °F 86.2 °F 75.2 °F 84% 30.04 in 7.0 mi ENE 4.6 mph - N/A   Scattered Clouds
9:48 PM 80.6 °F 86.2 °F 75.2 °F 84% 30.01 in 7.0 mi ENE 5.8 mph - N/A   Scattered Clouds
10:47 PM 80.6 °F 86.2 °F 75.2 °F 84% 30.07 in 7.0 mi ENE 5.8 mph - N/A   Partly Cloudy
11:46 PM 80.6 °F 86.2 °F 75.2 °F 84% 30.06 in 7.0 mi NE 5.8 mph - N/A   Clear